World > North America > United States > Ohio > Mark Center  

Mark Center, OH Hourly Weather Updates

Feedback E-mail the Weather

Quick Clicks

Mark Center, OH Weather Maps

°F °C°F °C
Mark Center Weather Map
UTC Time: 6/21/2024, 23:58
Your Time:

Mark Center, OH Regional Weather

Expires:202406220000;;433468
ASUS41 KCLE 212312
RWRCLE
OHIO REGIONAL WEATHER ROUNDUP
NATIONAL WEATHER SERVICE WILMINGTON, OH
700 PM EDT FRI JUN 21 2024

NOTE: "FAIR" INDICATES FEW OR NO CLOUDS BELOW 12,000 FEET WITH NO
SIGNIFICANT WEATHER AND/OR OBSTRUCTIONS TO VISIBILITY.


OHZ001>008-015>018-024>027-034-035-043-044-220000-
   NORTHWEST OHIO
  
CITY           SKY/WX    TMP DP  RH WIND       PRES   REMARKS
DEFIANCE       FAIR      94  63  35 VRB5      30.08F HX  95           
FINDLAY        FAIR      95  63  34 W12       30.07F HX  96           
TOLEDO EXPRESS FAIR      90  72  55 CALM      30.08F HX  97           
TOLEDO EXEC    FAIR      88  73  61 E6        30.09F HX  95           
LIMA           FAIR      94  64  37 SW8       30.11F HX  95           
$$
 

SKY/WX - Weather  TMP - Temperature  DP - Dew Point  RH - Humidity
WIND - Wind Direction/Speed PRES - Barometric Pressure VSB - Visibility
WCI - Wind Chill Index E13G22 Wind - East Wind 13 mph/Gusts of 22 mph

Trending Headlines

Trending Entertainment Headlines

Mark Center Radar Loop

Use the map search tool if you want to place a location marker on the radar map...

Mark Center Quick Facts

National Two Day Weather Forecast


E-mail the Mark Center Weather Forecast

Voice your opinion or tell us about page issues...